Location: Delta State University
(33.7460°N, 90.7320°W)
Time: 07:19:38
(UTC-06:00)

Iridium 13 - Visible Passes

Search period start: 24 January 2017 00:00
Search period end: 03 February 2017 00:00
Orbit: 776 x 779 km, 86.4° (Epoch: 22 January)

Date Brightness Start Highest point End Pass type
(mag) Time Alt. Az. Time Alt. Az. Time Alt. Az.
24 Jan 6.6 18:13:06 10° SE 18:17:06 23° E 18:21:06 10° NNE visible
24 Jan 7.2 19:52:56 10° SW 19:57:34 32° W 20:02:13 10° NNW visible
25 Jan 6.4 06:26:24 10° N 06:31:31 54° E 06:36:35 10° SSE visible
25 Jan 5.9 19:18:48 10° SSW 19:23:57 63° W 19:29:08 10° N visible
26 Jan 7.7 05:53:25 10° NNE 05:57:52 28° E 06:02:17 10° SE visible
26 Jan 5.4 18:45:18 10° S 18:50:27 66° E 18:55:38 10° N visible
26 Jan 8.6 20:30:16 10° W 20:31:36 11° WNW 20:32:57 10° WNW visible
27 Jan 8.5 05:21:17 10° NE 05:24:06 15° ENE 05:26:55 10° ESE visible
27 Jan 6.1 18:12:26 10° SSE 18:17:04 34° E 18:21:43 10° NNE visible
27 Jan 7.9 19:53:49 10° SW 19:57:47 22° W 20:01:46 10° NNW visible
28 Jan 5.7 06:26:23 10° N 06:31:38 82° E 06:36:50 10° S visible
28 Jan 6.8 19:19:12 10° SSW 19:24:05 42° W 19:29:02 10° NNW visible
29 Jan 6.9 05:53:07 10° NNE 05:58:04 41° E 06:02:58 10° SSE visible
29 Jan 5.6 18:45:19 10° S 18:50:31 82° W 18:55:46 10° N visible
30 Jan 8.0 05:20:23 10° NNE 05:24:22 22° E 05:28:19 10° SE visible
30 Jan 5.7 18:12:04 10° SSE 18:17:04 50° E 18:22:06 10° NNE visible
30 Jan 8.4 19:55:14 10° WSW 19:58:03 15° WNW 20:00:53 10° NW visible
31 Jan 8.7 04:49:15 10° ENE 04:50:33 11° ENE 04:51:50 10° E visible
31 Jan 5.5 06:26:31 10° N 06:31:42 67° W 06:36:52 10° S visible
31 Jan 7.5 19:19:51 10° SW 19:24:17 28° W 19:28:44 10° NNW visible
01 Feb 6.1 05:53:01 10° N 05:58:12 63° E 06:03:22 10° SSE visible
01 Feb 6.3 18:45:34 10° SSW 18:50:39 55° W 18:55:46 10° N visible
02 Feb 7.4 05:19:57 10° NNE 05:24:36 32° E 05:29:13 10° SE visible
02 Feb 5.5 18:11:56 10° S 18:17:07 77° E 18:22:20 10° N visible
